OPS 4682 DEB, 38454

Orbit data source: Space-Track

OPS 4682 DEB, 38454 is space debris in LEO originally from a launch on Sat, 03 Apr 1965 UTC launched from the Air Force Western Test Range (AFWTR). Debris objects in space refer to the collection of defunct objects orbiting the Earth. Examples of debris include non-operational satellites, rocket bodies, and fragments generated from explosions, collisions, or faulty payload assembly.

Loading next visibility...
Identifier
38454, 1965-027FK
Orbit
LEO
Country
Flag of USUS
Related business
Manufacturer
Unknown
Mission
Spacecraft
Bus & Motor
Unknown
Mass
Unknown
Launch date (UTC)
1965-04-03 (61 years ago)
Launch vehicle
Unknown
Launch site
Air Force Western Test Range (AFWTR)
Object type
Payload
Rocket body
Debris
Shape & HBR
Unknown shape, 0.1 m
Radar Cross Section
Small (<0.1 m²)

Expand to show TLE details & history
Last TLE update: 1 day ago

TLE from 1 day ago
0 OPS 4682 DEB
1 38454U 65027FK  25348.48692536  .00000422  00000-0  14729-2 0  9992
2 38454  90.2381   2.9657 0033793 342.2075  17.7859 12.95232210558693
Epoch: 2025-12-14T11:41Z
TLE epoch observation values (Epoch: 2025-12-14T11:41:10.351Z)
Latitude
0.00004°
Longitude
104.27343°
Altitude
1,259.06 km
Speed
7.237 km/s
True Right ascension
00h 11m 51s
True Declination
0° 00' 00"
Sunlit
Object was in daylight at epoch
Visualization orbit readout
Latitude
Unknown
Longitude
Unknown
Altitude
Unknown
Speed
Unknown
Apparent Right ascension
Unknown
Apparent Declination
Unknown
Sunlit
N/A
Visualization observer readout
Local Sidereal Time
16:53:05
Azimuth
Unknown
Elevation
Unknown
Doppler factor
Unknown
Orbital elements
Apogee altitude
1,303.831 km
Perigee altitude
1,252.086 km
Semi-major axis
7,656.095 km
Eccentricity
0.00338
Inclination
90.2381°
RAAN
2.9657°
Arg. of periapsis
342.2075°
True anomaly
17.90466°
Mean anomaly
17.7859°
Eccentric anomaly
17.84523°
Mean motion
3.2399 °/min
Orbital period
111.11 mins
BSTAR
0.0014729
Loading maneuver chart data...
Computing Atmospheric mass density...
Loading historical data...
Loading historical data...
Loading historical data...
Loading historical data...
Loading historical data...
Loading historical data...
Loading historical data...

Documentation

Showing up to 5 results
|